SL-8 DEB, 21253

Orbit data source: Space-Track

SL-8 DEB, 21253 is space debris in LEO originally from a launch on Tue, 12 Feb 1991 UTC launched from the Plesetsk Missile And Space Complex (PKMTR). Debris objects in space refer to the collection of defunct objects orbiting the Earth. Examples of debris include non-operational satellites, rocket bodies, and fragments generated from explosions, collisions, or faulty payload assembly.

Loading next visibility...
Identifier
21253, 1991-009BL
Orbit
LEO
Country
Flag of CISCIS
Related business
Manufacturer
Unknown
Mission
Spacecraft
Bus & Motor
Unknown
Mass
Unknown
Launch date (UTC)
1991-02-12 (35 years ago)
Launch vehicle
Unknown
Launch site
Plesetsk Missile And Space Complex (PKMTR)
Object type
Payload
Rocket body
Debris
Shape & HBR
Unknown shape, 0.2 m
Radar Cross Section
Medium (>0.1 m² and <1 m²)

Expand to show TLE details & history
Last TLE update: 18 hours ago

TLE from 18 hours ago
0 SL-8 DEB
1 21253U 91009BL  26171.16085696 -.00000090  00000-0 -76031-3 0  9991
2 21253  74.1149  63.2660 0147517  22.7088 129.9406 12.14612764564679
Epoch: 2026-06-20T03:51Z
TLE epoch observation values (Epoch: 2026-06-20T03:51:38.041Z)
Latitude
25.03477°
Longitude
-90.62309°
Altitude
1,695.329 km
Speed
6.996 km/s
True Right ascension
15h 42m 39s
True Declination
24° 55' 06"
Sunlit
Object was in daylight at epoch
Visualization orbit readout
Latitude
Unknown
Longitude
Unknown
Altitude
Unknown
Speed
Unknown
Apparent Right ascension
Unknown
Apparent Declination
Unknown
Sunlit
N/A
Visualization observer readout
Local Sidereal Time
08:46:29
Azimuth
Unknown
Elevation
Unknown
Doppler factor
Unknown
Orbital elements
Apogee altitude
1,731.859 km
Perigee altitude
1,496.065 km
Semi-major axis
7,992.099 km
Eccentricity
0.01475
Inclination
74.1149°
RAAN
63.266°
Arg. of periapsis
22.7088°
True anomaly
131.22139°
Mean anomaly
129.9406°
Eccentric anomaly
130.58251°
Mean motion
3.03775 °/min
Orbital period
118.51 mins
BSTAR
-0.00076031
Loading maneuver chart data...
Computing Atmospheric mass density...
Loading historical data...
Loading historical data...
Loading historical data...
Loading historical data...
Loading historical data...
Loading historical data...
Loading historical data...

Documentation

Showing up to 5 results
|